FW5837 Weather Reports


time (UTC)temp
C
wind
direction
speed
KPH
gust
KPH
rain 1hr
cm
rain 24hr
cm
rain mn
cm
humidity
%
barometer
mb
20260504151030 12 246 12.9 30.6 0.00 0.00 0.00 49 1007.6
20260504150533 12 249 12.9 29.0 0.00 0.00 0.00 50 1007.7
20260504141033 10 236 19.3 37.0 0.00 0.00 0.00 51 1007.7
20260504140529 11 261 16.1 37.0 0.00 0.00 0.00 51 1007.7
20260504130530 9 214 12.9 38.6 0.00 0.00 0.00 54 1007.9
20260504110529 6 211 14.5 43.5 0.00 0.00 0.00 63 1007.8
20260504100528 5 229 12.9 27.4 0.00 0.00 0.00 66 1007.7
20260504081554 5 211 11.3 20.9 0.00 0.00 0.00 77 1008.1
20260504081032 5 275 6.4 20.9 0.00 0.00 0.00 79 1008.1
20260504080532 5 241 6.4 20.9 0.00 0.00 0.00 79 1008.2
20260504080104 5 257 6.4 20.9 0.00 0.00 0.00 79 1008.0
20260504050531 4 272 6.4 19.3 0.00 0.00 0.00 74 1008.5
20260504045530 4 238 8.0 19.3 0.00 0.00 0.00 69 1008.4
20260504045030 4 224 8.0 17.7 0.00 0.00 0.00 68 1008.5
20260504044542 4 241 8.0 20.9 0.00 0.00 0.00 67 1008.5
20260504044030 4 270 6.4 20.9 0.00 0.00 0.00 66 1008.5
20260504043530 4 219 4.8 19.3 0.00 0.00 0.00 66 1008.5
20260504043043 4 257 4.8 19.3 0.00 0.00 0.00 66 1008.4
20260504042531 4 223 6.4 17.7 0.00 0.00 0.00 65 1008.5
20260504042030 4 205 6.4 17.7 0.00 0.00 0.00 65 1008.6
20260504041543 4 242 6.4 17.7 0.00 0.00 0.00 65 1008.4
20260504041028 4 235 6.4 29.0 0.00 0.00 0.00 65 1008.4
20260504040528 4 245 8.0 29.0 0.00 0.00 0.00 64 1008.4
20260504040100 4 261 9.7 27.4 0.00 0.00 0.00 63 1008.1
20260504035530 4 243 4.8 19.3 0.00 0.00 0.00 63 1008.3
20260504035028 4 234 8.0 19.3 0.00 0.00 0.00 62 1008.2
20260504034538 4 191 9.7 16.1 0.00 0.00 0.00 61 1008.2
20260504034028 4 257 6.4 25.7 0.00 0.00 0.00 60 1008.1
20260504033529 4 252 8.0 25.7 0.00 0.00 0.00 59 1007.9
20260504033045 4 246 8.0 19.3 0.00 0.00 0.00 58 1007.9
20260504032550 4 279 6.4 19.3 0.00 0.00 0.00 56 1007.9
20260504032032 4 238 8.0 19.3 0.00 0.00 0.00 55 1007.9
20260504031543 4 261 8.0 25.7 0.00 0.00 0.00 54 1008.0
20260504031031 4 257 11.3 25.7 0.00 0.00 0.00 54 1008.0
20260504030534 3 241 8.0 20.9 0.00 0.00 0.00 54 1007.9
20260504030044 3 254 8.0 20.9 0.00 0.00 0.00 54 1008.0
20260504025532 3 224 6.4 16.1 0.00 0.00 0.00 54 1007.9
20260504025033 3 239 8.0 17.7 0.00 0.00 0.00 54 1007.9
20260504024542 3 244 8.0 17.7 0.00 0.00 0.00 53 1007.8
20260504024033 3 259 8.0 17.7 0.00 0.00 0.00 53 1007.9
20260504023532 3 252 6.4 16.1 0.00 0.00 0.00 53 1008.0
20260504023053 3 219 6.4 16.1 0.00 0.00 0.00 53 1008.1
20260504022535 3 251 6.4 22.5 0.00 0.00 0.00 53 1008.2
20260504022031 3 247 8.0 22.5 0.00 0.00 0.00 53 1008.2
20260504021545 3 253 9.7 19.3 0.00 0.00 0.00 53 1008.2
20260504021031 3 238 8.0 24.1 0.00 0.00 0.00 52 1008.1
20260504020531 3 245 6.4 24.1 0.00 0.00 0.00 53 1008.1
20260504020045 4 244 6.4 24.1 0.00 0.00 0.00 52 1008.2
20260504015531 4 235 8.0 24.1 0.00 0.00 0.00 52 1008.1
20260504015032 4 265 8.0 20.9 0.00 0.00 0.00 51 1008.1
20260504014556 4 224 8.0 25.7 0.00 0.00 0.00 51 1008.0
20260504014031 4 251 9.7 25.7 0.00 0.00 0.00 51 1008.0
20260504013532 4 253 8.0 19.3 0.00 0.00 0.00 51 1007.9
20260504013044 4 240 9.7 19.3 0.00 0.00 0.00 50 1007.9
20260504012536 4 263 9.7 22.5 0.00 0.00 0.00 50 1007.7
20260504012032 4 258 11.3 22.5 0.00 0.00 0.00 49 1007.8
20260504011541 4 265 11.3 20.9 0.00 0.00 0.00 49 1007.7
20260504011032 4 255 11.3 19.3 0.00 0.00 0.00 49 1007.7
20260504010531 4 245 9.7 20.9 0.00 0.00 0.00 49 1007.7
20260504010050 4 232 8.0 20.9 0.00 0.00 0.00 48 1007.6
20260504005535 4 242 8.0 19.3 0.00 0.00 0.00 47 1007.6
20260504005032 4 267 11.3 19.3 0.00 0.00 0.00 46 1007.5
20260504004550 4 245 9.7 20.9 0.00 0.00 0.00 47 1007.3
20260504004031 5 240 9.7 27.4 0.00 0.00 0.00 46 1007.4
20260504003534 5 259 11.3 27.4 0.00 0.00 0.00 45 1007.2
20260504003054 5 165 11.3 22.5 0.00 0.00 0.00 44 1007.2
20260504002529 5 257 9.7 22.5 0.00 0.00 0.00 45 1007.1
20260504002030 5 253 8.0 22.5 0.00 0.00 0.00 44 1007.1
20260504001600 5 261 6.4 16.1 0.00 0.00 0.00 45 1007.0
20260504001031 5 238 6.4 14.5 0.00 0.00 0.00 45 1007.1
20260504000530 5 236 4.8 14.5 0.00 0.00 0.00 46 1006.9
20260504000052 5 250 4.8 19.3 0.00 0.00 0.00 46 1007.0
20260503235529 5 257 4.8 19.3 0.00 0.00 0.00 45 1006.8
20260503235032 5 259 4.8 14.5 0.00 0.00 0.00 46 1006.8
20260503234543 5 248 8.0 16.1 0.00 0.00 0.00 46 1006.6
20260503234029 5 247 6.4 17.7 0.00 0.00 0.00 45 1006.6
20260503233531 6 267 8.0 22.5 0.00 0.00 0.00 44 1006.6
20260503233045 6 259 8.0 22.5 0.00 0.00 0.00 43 1006.6
20260503232532 6 211 8.0 19.3 0.00 0.00 0.00 44 1006.6
20260503232030 6 249 8.0 19.3 0.00 0.00 0.00 44 1006.5
20260503231546 6 254 9.7 19.3 0.00 0.00 0.00 42 1006.4
20260503231030 6 246 9.7 19.3 0.00 0.00 0.00 43 1006.4
20260503230530 6 257 9.7 19.3 0.00 0.00 0.00 42 1006.4
20260503230045 6 261 9.7 20.9 0.00 0.00 0.00 43 1006.5
20260503225529 6 229 6.4 20.9 0.00 0.00 0.00 44 1006.4
20260503225033 6 265 9.7 20.9 0.00 0.00 0.00 43 1006.4
20260503224545 6 240 6.4 19.3 0.00 0.00 0.00 44 1006.4
20260503224029 6 262 8.0 20.9 0.00 0.00 0.00 45 1006.4
20260503223531 6 269 11.3 20.9 0.00 0.00 0.00 45 1006.4
20260503223044 6 265 6.4 30.6 0.00 0.00 0.00 45 1006.4
20260503222530 6 244 12.9 30.6 0.00 0.00 0.00 45 1006.4
20260503222035 6 238 11.3 29.0 0.00 0.00 0.00 44 1006.2
20260503221546 6 276 11.3 29.0 0.00 0.00 0.00 44 1006.4
20260503221032 6 236 14.5 29.0 0.00 0.00 0.00 44 1006.4
20260503220533 6 269 11.3 22.5 0.00 0.00 0.00 45 1006.3
20260503220049 6 214 11.3 22.5 0.00 0.00 0.00 45 1006.4
20260503215528 6 263 11.3 38.6 0.00 0.00 0.00 44 1006.5
20260503215031 6 235 9.7 38.6 0.00 0.00 0.00 45 1006.4
20260503214545 6 229 11.3 27.4 0.00 0.00 0.00 44 1006.4
20260503214031 7 221 11.3 27.4 0.00 0.00 0.00 44 1006.4
20260503213528 7 235 12.9 27.4 0.00 0.00 0.00 43 1006.4
20260503213045 7 254 9.7 22.5 0.00 0.00 0.00 46 1006.5
20260503212529 6 225 9.7 27.4 0.00 0.00 0.00 45 1006.4
20260503212030 6 262 9.7 27.4 0.00 0.00 0.00 47 1006.4
20260503211544 7 248 12.9 27.4 0.00 0.00 0.00 43 1006.4
20260503211032 7 182 8.0 25.7 0.00 0.00 0.00 45 1006.3
20260503210533 6 238 9.7 25.7 0.00 0.00 0.00 45 1006.2
20260503210043 7 242 9.7 25.7 0.00 0.00 0.00 46 1006.1
20260503205529 6 275 12.9 25.7 0.00 0.00 0.00 45 1006.2
20260503205029 6 292 6.4 24.1 0.00 0.00 0.00 49 1006.2
20260503204543 5 246 9.7 24.1 0.00 0.00 0.00 50 1006.4
20260503204031 5 263 12.9 22.5 0.00 0.00 0.00 48 1006.2
20260503203534 6 238 12.9 20.9 0.00 0.00 0.00 48 1006.3
20260503203040 6 296 9.7 32.2 0.00 0.00 0.00 47 1006.3
20260503202532 7 250 9.7 32.2 0.00 0.00 0.00 47 1006.3
20260503202029 7 202 11.3 25.7 0.00 0.00 0.00 47 1006.2
20260503201546 6 257 9.7 25.7 0.00 0.00 0.00 46 1006.4
20260503201031 7 239 9.7 27.4 0.00 0.00 0.00 46 1006.1
20260503200528 6 266 12.9 29.0 0.00 0.00 0.00 46 1006.2
20260503200050 6 227 12.9 29.0 0.00 0.00 0.00 46 1006.3
20260503195531 6 201 11.3 24.1 0.00 0.00 0.00 47 1006.2
20260503195034 6 223 9.7 32.2 0.00 0.00 0.00 47 1006.4
20260503194543 6 258 11.3 32.2 0.00 0.00 0.00 48 1006.3
20260503194029 6 252 17.7 32.2 0.00 0.00 0.00 45 1006.3
20260503193533 7 244 11.3 24.1 0.00 0.00 0.00 47 1006.2
20260503193045 6 235 12.9 25.7 0.00 0.00 0.00 48 1006.4
20260503192529 5 257 11.3 32.2 0.00 0.00 0.00 49 1006.5
20260503192031 5 250 11.3 32.2 0.00 0.00 0.00 48 1006.6
20260503191549 6 257 11.3 30.6 0.00 0.00 0.00 48 1006.4
20260503191031 6 282 16.1 32.2 0.00 0.00 0.00 46 1006.4
20260503190531 5 241 16.1 32.2 0.00 0.00 0.00 48 1006.5
20260503190043 5 242 9.7 27.4 0.00 0.00 0.00 48 1006.4
20260503185530 6 254 12.9 27.4 0.00 0.00 0.00 49 1006.5
20260503185032 5 247 9.7 24.1 0.00 0.00 0.00 50 1006.5
20260503184545 5 259 12.9 29.0 0.00 0.00 0.00 50 1006.4
20260503184032 5 257 14.5 37.0 0.00 0.00 0.00 50 1006.5
20260503183529 5 252 16.1 37.0 0.00 0.00 0.00 49 1006.5
20260503183102 5 263 16.1 29.0 0.00 0.00 0.00 50 1006.5
20260503182532 5 236 12.9 27.4 0.00 0.00 0.00 49 1006.5
20260503182031 5 236 14.5 29.0 0.00 0.00 0.00 51 1006.4
20260503181608 5 273 16.1 32.2 0.00 0.00 0.00 51 1006.5
20260503181031 5 227 14.5 37.0 0.00 0.00 0.00 51 1006.4
20260503180603 5 246 16.1 37.0 0.00 0.00 0.00 51 1006.2
20260503180043 4 258 8.0 37.0 0.00 0.00 0.00 53 1006.4
20260503175531 4 267 12.9 37.0 0.00 0.00 0.00 53 1006.4
20260503175029 4 296 17.7 37.0 0.00 0.00 0.00 53 1006.4
20260503174543 5 252 14.5 29.0 0.00 0.00 0.00 52 1006.2
20260503174029 5 227 8.0 19.3 0.00 0.00 0.00 55 1006.5
20260503173529 5 205 9.7 24.1 0.00 0.00 0.00 55 1006.2
20260503173039 4 273 11.3 24.1 0.00 0.00 0.00 54 1006.4
20260503172534 5 238 9.7 38.6 0.00 0.00 0.00 53 1006.3
20260503172034 4 261 12.9 38.6 0.00 0.00 0.00 52 1006.4
20260503171547 5 307 12.9 24.1 0.00 0.00 0.00 52 1006.4
20260503171030 5 279 11.3 32.2 0.00 0.00 0.00 51 1006.2
20260503170529 5 319 12.9 32.2 0.00 0.00 0.00 51 1006.3